Hourly Weather Bloto

Today, 25 October, Sunday

Time Temperature Precipitation Wind Pressure Humidity
00:00 +12°C° 0 mm 1 mps 742 mmHg 92%
01:00 +11°C° 0 mm 1 mps 742 mmHg 92%
02:00 +11°C° 0 mm 1 mps 741 mmHg 93%
03:00 +11°C° 0 mm 1 mps 741 mmHg 93%
04:00 +11°C° 0 mm 1 mps 741 mmHg 94%
05:00 +11°C° 0 mm 1 mps 741 mmHg 94%
06:00 +10°C° 0 mm 1 mps 741 mmHg 94%
07:00 +10°C° 0 mm 1 mps 741 mmHg 94%
08:00 +12°C° 0 mm 2 mps 741 mmHg 88%
09:00 +13°C° 0 mm 2 mps 741 mmHg 81%
10:00 +14°C° 0 mm 3 mps 741 mmHg 75%
11:00 +16°C° 0 mm 3 mps 741 mmHg 71%
12:00 +16°C° 0 mm 3 mps 740 mmHg 68%
13:00 +17°C° 0 mm 3 mps 740 mmHg 65%
14:00 +16°C° 0 mm 3 mps 740 mmHg 69%
15:00 +16°C° 0 mm 3 mps 739 mmHg 72%
16:00 +14°C° 0 mm 3 mps 739 mmHg 75%
17:00 +13°C° 0 mm 3 mps 739 mmHg 77%
18:00 +12°C° 0 mm 3 mps 739 mmHg 78%
19:00 +12°C° 0 mm 4 mps 739 mmHg 80%
20:00 +11°C° 0 mm 4 mps 738 mmHg 84%
21:00 +11°C° 0 mm 4 mps 738 mmHg 88%
22:00 +11°C° 0 mm 3 mps 738 mmHg 92%
23:00 +11°C° 0 mm 3 mps 738 mmHg 93%

Tomorrow, 26 October, Monday

Time Temperature Precipitation Wind Pressure Humidity
00:00 +11°C° 0 mm 3 mps 737 mmHg 93%
01:00 +11°C° 0 mm 3 mps 737 mmHg 94%
02:00 +10°C° 0 mm 3 mps 737 mmHg 94%
03:00 +10°C° 0 mm 2 mps 737 mmHg 94%
04:00 +10°C° 0 mm 2 mps 736 mmHg 95%
05:00 +10°C° 0 mm 2 mps 736 mmHg 94%
06:00 +10°C° 0 mm 2 mps 736 mmHg 94%
07:00 +9°C° 0 mm 2 mps 736 mmHg 94%
08:00 +12°C° 0 mm 2 mps 736 mmHg 87%
09:00 +12°C° 0 mm 3 mps 736 mmHg 81%
10:00 +14°C° 0 mm 3 mps 736 mmHg 74%
11:00 +16°C° 0 mm 3 mps 736 mmHg 70%
12:00 +17°C° 0 mm 3 mps 735 mmHg 65%
13:00 +18°C° 0 mm 3 mps 735 mmHg 61%
14:00 +17°C° 0 mm 3 mps 735 mmHg 64%
15:00 +17°C° 0 mm 3 mps 735 mmHg 67%
16:00 +16°C° 0 mm 3 mps 735 mmHg 70%
17:00 +16°C° 0 mm 3 mps 735 mmHg 71%
18:00 +14°C° 0 mm 3 mps 735 mmHg 72%
19:00 +14°C° 0 mm 3 mps 735 mmHg 73%
20:00 +14°C° 0 mm 3 mps 735 mmHg 74%
21:00 +14°C° 0 mm 3 mps 735 mmHg 76%
22:00 +15°C° 0 mm 2 mps 735 mmHg 77%
23:00 +14°C° 0 mm 2 mps 735 mmHg 78%

Day after tomorrow, 27 October, Tuesday

Time Temperature Precipitation Wind Pressure Humidity
00:00 +14°C° 0 mm 2 mps 736 mmHg 79%
01:00 +14°C° 0 mm 2 mps 736 mmHg 80%
02:00 +14°C° 0 mm 2 mps 736 mmHg 80%
03:00 +14°C° 0 mm 2 mps 736 mmHg 80%
04:00 +13°C° 0 mm 3 mps 736 mmHg 80%
05:00 +12°C° 0 mm 3 mps 736 mmHg 81%
06:00 +12°C° 0 mm 3 mps 736 mmHg 81%
07:00 +12°C° 0 mm 3 mps 736 mmHg 81%
08:00 +13°C° 0 mm 3 mps 736 mmHg 76%
09:00 +15°C° 0 mm 4 mps 737 mmHg 70%
10:00 +17°C° 0 mm 4 mps 737 mmHg 65%
11:00 +18°C° 0 mm 4 mps 737 mmHg 61%
12:00 +19°C° 0 mm 4 mps 737 mmHg 56%
13:00 +20°C° 0 mm 5 mps 737 mmHg 51%
14:00 +19°C° 0 mm 4 mps 737 mmHg 56%
15:00 +18°C° 0 mm 3 mps 737 mmHg 61%
16:00 +17°C° 0 mm 3 mps 737 mmHg 66%
17:00 +16°C° 0 mm 3 mps 737 mmHg 69%
18:00 +16°C° 0 mm 3 mps 737 mmHg 72%
19:00 +14°C° 0 mm 3 mps 737 mmHg 76%
20:00 +13°C° 0 mm 3 mps 738 mmHg 77%
21:00 +14°C° 0 mm 2 mps 738 mmHg 78%
22:00 +14°C° 0 mm 2 mps 738 mmHg 80%
23:00 +13°C° 0 mm 2 mps 739 mmHg 84%

28 October, Wednesday

Time Temperature Precipitation Wind Pressure Humidity
00:00 +13°C° 0 mm 2 mps 739 mmHg 88%
01:00 +12°C° 0 mm 1 mps 739 mmHg 93%
02:00 +11°C° 0 mm 1 mps 739 mmHg 93%
03:00 +11°C° 0 mm 1 mps 739 mmHg 94%
04:00 +11°C° 0 mm 1 mps 740 mmHg 95%
05:00 +10°C° 0 mm 1 mps 740 mmHg 95%
06:00 +10°C° 0 mm 1 mps 740 mmHg 95%
07:00 +9°C° 0 mm 0 mps 740 mmHg 95%
08:00 +11°C° 0 mm 1 mps 740 mmHg 89%
09:00 +12°C° 0 mm 1 mps 740 mmHg 83%
10:00 +13°C° 0 mm 1 mps 740 mmHg 77%
11:00 +14°C° 0 mm 2 mps 740 mmHg 75%
12:00 +15°C° 0 mm 2 mps 740 mmHg 72%
13:00 +16°C° 0 mm 2 mps 740 mmHg 69%
14:00 +15°C° 0 mm 2 mps 740 mmHg 72%
15:00 +15°C° 0 mm 2 mps 740 mmHg 75%
16:00 +15°C° 0 mm 1 mps 740 mmHg 78%
17:00 +14°C° 0 mm 1 mps 740 mmHg 80%
18:00 +14°C° 0 mm 2 mps 740 mmHg 82%
19:00 +13°C° 0 mm 2 mps 740 mmHg 84%
20:00 +13°C° 0 mm 2 mps 740 mmHg 85%
21:00 +13°C° 0 mm 2 mps 740 mmHg 86%
22:00 +12°C° 0 mm 2 mps 741 mmHg 87%
23:00 +12°C° 0 mm 2 mps 741 mmHg 87%

29 October, Thursday

Time Temperature Precipitation Wind Pressure Humidity
00:00 +12°C° 0 mm 2 mps 741 mmHg 87%
01:00 +10°C° 0 mm 2 mps 741 mmHg 87%
02:00 +10°C° 0 mm 2 mps 741 mmHg 85%
03:00 +9°C° 0 mm 2 mps 741 mmHg 83%
04:00 +9°C° 0 mm 2 mps 741 mmHg 81%
05:00 +9°C° 0 mm 2 mps 741 mmHg 81%
06:00 +9°C° 0 mm 2 mps 741 mmHg 80%
07:00 +9°C° 0 mm 2 mps 741 mmHg 79%
08:00 +10°C° 0 mm 3 mps 741 mmHg 74%
09:00 +12°C° 0 mm 3 mps 742 mmHg 69%
10:00 +13°C° 0 mm 3 mps 742 mmHg 65%
11:00 +14°C° 0 mm 4 mps 742 mmHg 61%
12:00 +15°C° 0 mm 4 mps 742 mmHg 58%
13:00 +15°C° 0 mm 5 mps 742 mmHg 54%
14:00 +15°C° 0 mm 4 mps 742 mmHg 58%
15:00 +14°C° 0 mm 4 mps 742 mmHg 61%
16:00 +13°C° 0 mm 3 mps 742 mmHg 65%
17:00 +12°C° 0 mm 3 mps 743 mmHg 68%
18:00 +12°C° 0 mm 3 mps 743 mmHg 70%
19:00 +11°C° 0 mm 3 mps 744 mmHg 73%
20:00 +11°C° 0 mm 3 mps 744 mmHg 76%
21:00 +10°C° 0 mm 3 mps 744 mmHg 78%
22:00 +10°C° 0 mm 3 mps 744 mmHg 81%
23:00 +10°C° 0 mm 3 mps 745 mmHg 81%

30 October, Friday

Time Temperature Precipitation Wind Pressure Humidity
00:00 +9°C° 0 mm 3 mps 745 mmHg 82%
01:00 +9°C° 0 mm 3 mps 745 mmHg 82%
02:00 +9°C° 0 mm 3 mps 745 mmHg 82%
03:00 +9°C° 0 mm 3 mps 745 mmHg 82%
04:00 +8°C° 0 mm 4 mps 745 mmHg 82%
05:00 +8°C° 0 mm 4 mps 745 mmHg 82%
06:00 +8°C° 0 mm 4 mps 745 mmHg 81%
07:00 +8°C° 0 mm 4 mps 745 mmHg 81%
08:00 +10°C° 0 mm 4 mps 745 mmHg 76%
09:00 +10°C° 0 mm 5 mps 745 mmHg 72%
10:00 +12°C° 0 mm 5 mps 745 mmHg 68%
11:00 +13°C° 0 mm 5 mps 745 mmHg 68%
12:00 +13°C° 0 mm 5 mps 745 mmHg 68%
13:00 +13°C° 0 mm 4 mps 745 mmHg 68%
14:00 +13°C° 0 mm 4 mps 745 mmHg 70%
15:00 +12°C° 0 mm 3 mps 745 mmHg 72%
16:00 +12°C° 0 mm 3 mps 745 mmHg 73%
17:00 +12°C° 0 mm 3 mps 745 mmHg 73%
18:00 +12°C° 0 mm 4 mps 745 mmHg 73%
19:00 +11°C° 0 mm 4 mps 745 mmHg 73%
20:00 +11°C° 0 mm 4 mps 745 mmHg 73%
21:00 +11°C° 0 mm 3 mps 745 mmHg 73%
22:00 +11°C° 0 mm 3 mps 745 mmHg 73%
23:00 +11°C° 0 mm 3 mps 745 mmHg 73%
Show more